Simultaneous Nadir Overpasses (SNOs) Predictions

Prediction of SNOs between AQUA and NPP Satellite Orbit:

Table of predicted SNOs for the next 14.0 days since TLE Epoch: 5/2/2014
Index Date (AQUA) Time (AQUA) Lat,Lon (AQUA) SZA (AQUA ) Date (NPP) Time (NPP) Lat,Lon (NPP) SZA (NPP ) Distance(km) Time Diff (sec)
1 05/03/2014 03:07:42 -66.21, 176.05 87.95 05/03/2014 03:07:24 -66.21, 176.08 87.94 1.10 18
2 05/03/2014 03:56:03 69.79, -12.09 88.42 05/03/2014 03:57:01 69.80, -12.04 88.34 1.97 58
3 05/05/2014 18:35:50 62.47, 121.01 95.02 05/05/2014 18:34:45 62.47, 121.00 95.10 0.51 65
4 05/05/2014 19:23:51 -67.44, -66.78 89.94 05/05/2014 19:24:01 -67.44, -66.75 89.96 1.53 10
5 05/08/2014 10:51:44 64.49,-121.45 92.30 05/08/2014 10:51:07 64.50,-121.43 92.33 1.21 37
6 05/08/2014 11:40:07 -68.18, 49.94 91.41 05/08/2014 11:40:46 -68.18, 49.93 91.45 0.48 39
7 05/11/2014 03:07:50 65.84, -4.33 90.27 05/11/2014 03:07:42 65.84, -4.31 90.27 0.80 8
8 05/11/2014 03:56:17 -69.27, 167.18 93.22 05/11/2014 03:57:25 -69.27, 167.18 93.29 0.15 68
9 05/13/2014 18:35:56 -62.33, -59.13 86.88 05/13/2014 18:35:02 -62.32, -59.13 86.81 0.14 54
10 05/13/2014 19:24:05 66.64, 112.35 88.82 05/13/2014 19:24:27 66.63, 112.31 88.82 1.98 22




NCC Satellite Simultaneous Nadir Overpasses (SNOs) Prediction Service
